Flag for U.S.A. Weather past 2 weeks in Neenah, Wisconsin, U.S.A.

Now
54 °F

Passing clouds.


Feels Like: 53 °F
Forecast: 53 / 75 °F
Wind: 3 mph from Northeast

Location: Appleton / Outagamie

Current Time: Jul 24, 2014 at 6:00:21 AM

Latest Report: Jul 24, 2014 at 4:55 AM


Visibility: 10 mi

Pressure: 30.21 "Hg

Humidity: 77%

Dew point: 46 °F

Location of NeenahLocation

Historic Weather in Neenah — Graph

°F

Neenah temperature yesterday

Maximum temperature yesterday: 73 °F (at 1:45 PM)
Minimum temperature yesterday: 57 °F (at 5:15 AM)
Average temperature yesterday: 66 °F

Past Weeks' High & Low Weather Summary

 TemperatureHumidityPressure
High88 °F (Jul 22, 5:45 PM)100% (Jul 10, 7:45 AM)30.22 "Hg (Jul 10, 7:45 AM)
Low34 °F (Jul 10, 7:45 AM)27% (Jul 13, 4:45 PM)29.82 "Hg (Jul 14, 1:45 PM)
Average65 °F69%30.02 "Hg
* Reported Jul 9 7:45 AM — Jul 24 4:55 AM, Neenah, Weather by CustomWeather, © 2014

Note: Actual official high and low records may vary slightly from our data, if they occured in-between our weather recording intervals... More about our weather records

Advertising

Neenah weather history for previous 24 hours

 ConditionsComfort  
Time TempWeatherWind HumidityBarometerVisibility
4:55 AM
Jul 24
54 °FPassing clouds.3 mph77%30.21 "Hg10 mi
4:35 AM54 °FPassing clouds.3 mph77%30.20 "Hg10 mi
4:15 AM52 °FPassing clouds.3 mph82%30.20 "Hg10 mi
3:55 AM54 °FPassing clouds.5 mph77%30.20 "Hg10 mi
3:35 AM52 °FPassing clouds.No wind82%30.19 "Hg10 mi
3:15 AM52 °FPassing clouds.No wind82%30.19 "Hg10 mi
2:55 AM52 °FPassing clouds.No wind77%30.19 "Hg10 mi
2:35 AM54 °FClear.No wind72%30.19 "Hg10 mi
2:13 AM57 °FPassing clouds.No wind67%30.19 "Hg10 mi
1:35 AM61 °FPassing clouds.3 mph55%30.19 "Hg10 mi
1:15 AM61 °FPassing clouds.No wind55%30.19 "Hg10 mi
12:35 AM61 °FPassing clouds.3 mph55%30.19 "Hg10 mi
12:15 AM59 °FPassing clouds.No wind59%30.19 "Hg10 mi
11:55 PM
Jul 23
59 °FPassing clouds.6 mph59%30.19 "Hg10 mi
11:15 PM61 °FPassing clouds.6 mph55%30.19 "Hg10 mi
10:45 PM61 °FPassing clouds.7 mph59%30.18 "Hg10 mi
9:45 PM64 °FPassing clouds.7 mph56%30.18 "Hg10 mi
8:45 PM68 °FScattered clouds.7 mph49%30.16 "Hg10 mi
7:45 PM72 °FScattered clouds.7 mph44%30.16 "Hg10 mi
5:45 PM72 °FScattered clouds.10 mph44%30.16 "Hg10 mi
4:45 PM73 °FScattered clouds.12 mph41%30.18 "Hg10 mi
3:45 PM73 °FPartly sunny.14 mph41%30.19 "Hg10 mi
2:45 PM72 °FPartly sunny.10 mph44%30.20 "Hg10 mi
1:45 PM73 °FPartly sunny.12 mph41%30.19 "Hg10 mi
12:45 PM72 °FPartly sunny.14 mph47%30.20 "Hg10 mi
11:45 AM70 °FPartly sunny.13 mph50%30.21 "Hg10 mi
10:45 AM68 °FScattered clouds.8 mph49%30.21 "Hg10 mi
9:45 AM66 °FScattered clouds.10 mph60%30.22 "Hg10 mi
8:45 AM64 °FScattered clouds.7 mph68%30.22 "Hg10 mi
7:45 AM61 °FScattered clouds.10 mph83%30.21 "Hg10 mi
Weather by CustomWeather, © 2014

See weather overviewHow to use our weather pages